Location: Newark
(46.0167°N, 11.3000°E)
Time: 20:48:46
(UTC+00:00)

ISS - Visible Passes

Search period start: 22 November 2019 00:00
Search period end: 02 December 2019 00:00
Orbit: 412 x 421 km, 51.6° (Epoch: 23 November)

Date Brightness Start Highest point End Pass type
(mag) Time Alt. Az. Time Alt. Az. Time Alt. Az.
22 Nov -2.5 17:27:25 10° SSW 17:29:54 30° SSE 17:29:54 30° SSE visible
23 Nov -2.0 16:39:38 10° S 16:42:09 20° SE 16:43:39 15° ESE visible
23 Nov -1.3 18:15:15 10° WSW 18:16:34 22° WSW 18:16:34 22° WSW visible
24 Nov -3.9 17:26:49 10° SW 17:30:10 76° SSE 17:30:14 75° SE visible
25 Nov -3.3 16:38:32 10° SW 16:41:46 47° SE 16:43:49 20° ENE visible
25 Nov -1.2 18:15:21 10° W 18:16:44 21° WNW 18:16:44 21° WNW visible
26 Nov -3.4 17:26:43 10° W 17:30:01 54° NNW 17:30:16 52° N visible
27 Nov -3.7 16:38:09 10° WSW 16:41:30 77° NNW 16:43:45 20° ENE visible
27 Nov -1.0 18:15:32 10° WNW 18:16:38 18° WNW 18:16:38 18° WNW visible
28 Nov -2.7 17:26:50 10° W 17:29:59 35° NNW 17:30:05 35° N visible
29 Nov -3.0 16:38:09 10° W 16:41:22 43° NNW 16:43:30 18° NE visible
29 Nov -0.9 18:15:36 10° WNW 18:16:24 15° NW 18:16:24 15° NW visible
30 Nov -2.5 17:26:56 10° WNW 17:29:48 30° N 17:29:48 30° N visible
01 Dec -2.6 16:38:14 10° WNW 16:41:18 32° N 16:43:12 18° NE visible
01 Dec -0.8 18:15:25 10° WNW 18:16:05 14° NW 18:16:05 14° NW visible
